Location: Im Fang
(46.6019°N, 7.2397°E)
Time: 05:12:31
(UTC+00:00)

Daily predictions for brighter satellites

Satellite Brightness Start Highest point End
(mag) Time Altitude Azimuth Time Altitude Azimuth Time Altitude Azimuth
CZ-4C R/B 4.1 02:41:51 35° ENE 02:41:51 35° ENE 02:47:34 10° ESE
SL-16 R/B 4.3 03:05:11 21° ESE 03:05:11 21° ESE 03:07:10 10° SE
ATLAS 5 CENTAUR R/B 4.5 03:19:38 14° NE 03:19:38 14° NE 03:20:17 10° NE
Lacrosse 5 4.5 03:23:38 13° SE 03:23:38 13° SE 03:24:11 10° SE
Cosmos 2297 Rocket 3.6 04:10:09 27° N 04:10:09 27° N 04:12:47 10° NNE
Cosmos 2227 Rocket 3.4 04:13:54 29° N 04:13:54 29° N 04:16:51 10° NNE
Cosmos 1241 Rocket 4.4 04:19:54 60° SW 04:19:54 60° SW 04:25:35 10° SSE
Cosmos 614 Rocket 4.0 04:23:15 66° S 04:23:15 66° S 04:27:39 10° SSE
SKYMED 2 4.1 04:19:29 10° SSE 04:23:43 57° ENE 04:24:36 47° NNE
Cosmos 1891 Rocket 4.4 04:20:48 10° SSW 04:27:11 69° W 04:33:32 10° N
Cosmos 1371 Rocket 3.9 04:26:33 37° SSW 04:28:41 86° ESE 04:33:55 10° NNE
CZ-4C R/B 2.9 04:27:04 47° NW 04:29:25 73° SW 04:37:37 10° SSE
Cosmos 407 Rocket 3.4 04:29:54 72° WSW 04:29:57 72° WSW 04:35:16 10° SSE
Cosmos 1464 Rocket 3.9 04:26:31 10° SSW 04:32:38 62° WNW 04:38:45 10° N
Cosmos 1943 4.0 04:29:38 22° N 04:32:58 48° ENE 04:38:23 10° SE
Cosmos 1140 Rocket 3.4 04:32:38 52° NNW 04:33:56 87° ENE 04:39:10 10° SSE
USA 234 3.2 04:28:31 10° NE 04:35:00 67° NNW 04:36:57 46° W
GEOS 3 Rocket 3.7 04:32:25 10° SSE 04:37:16 52° SW 04:37:16 52° SW
Cosmos 1023 Rocket 4.3 04:44:21 48° NW 04:45:45 73° WSW 04:50:59 10° SSE
SL-16 R/B 3.1 04:47:08 31° SW 04:47:08 31° SW 04:50:53 10° S
Okean 1-7 3.6 04:43:15 16° N 04:46:43 59° ENE 04:51:03 10° SSE
Cosmos 1933 Rocket 3.3 04:43:50 10° SSW 04:48:10 75° W 04:52:31 10° N
Cosmos 1603 3.7 04:48:58 26° NNW 04:52:23 84° ENE 04:58:06 10° SSE
MOS 1-B 4.4 04:47:25 10° NNE 04:53:14 80° ESE 04:59:00 10° SSW
STARLINK 1050 3.6 04:53:54 51° NNE 04:53:54 51° NNE 04:57:13 10° E
STARLINK 1055 3.5 04:56:35 52° NNE 04:56:40 53° NNE 05:00:01 10° ESE
Cosmos 2082 4.2 04:57:19 36° NW 04:57:19 36° NW 05:02:22 10° NNE
NOSS 2-1 (E) 4.4 04:55:12 32° NW 04:58:05 87° SW 05:05:49 10° SE
Cosmos 1461 2.8 04:57:20 56° WNW 04:58:09 75° SW 05:02:30 10° SSE
STARLINK 1022 3.4 04:58:31 53° N 04:58:41 54° NNE 05:02:03 10° ESE
Meteor 1-27 Rocket 4.2 04:58:46 37° WNW 04:59:44 39° W 05:05:09 10° SSW
ATLAS 5 CENTAUR R/B 2.9 05:01:11 25° NNW 05:01:11 25° NNW 05:04:51 10° NNE
Lacrosse 5 3.9 05:02:54 13° SW 05:02:54 13° SW 05:04:11 10° SSW
Okean 1 3.9 04:58:14 12° N 05:01:51 57° ENE 05:05:45 10° SSE
STARLINK 1042 3.4 05:01:49 54° N 05:02:07 56° NNE 05:05:30 10° ESE
STARLINK 1056 3.3 05:04:34 53° N 05:04:59 59° NNE 05:08:23 10° ESE
Nadezhda 4 Rocket 4.1 04:59:13 10° NNW 05:05:11 48° W 05:11:03 10° SSW
Cosmos 724 4.2 05:00:25 16° SW 05:05:19 67° NW 05:11:16 10° NNE
Helios 1A Rocket 3.5 05:03:15 10° NNE 05:07:15 58° ESE 05:11:13 10° S
ALOS 2.2 05:02:59 10° NNE 05:07:42 90° ENE 05:12:22 10° SSW
STARLINK 1054 3.3 05:07:19 52° NNW 05:07:52 61° NNE 05:11:16 10° ESE
STARLINK 1062 3.3 05:09:55 50° NNW 05:10:34 64° NNE 05:13:58 10° ESE
COSMO-SKYMED 1 2.8 05:07:34 10° S 05:11:44 46° W 05:13:08 34° NW
Cosmos 2084 Rocket 3.8 05:11:26 39° W 05:12:33 49° WSW 05:16:47 10° SSE
Cosmos 1624 Rocket 4.2 05:07:44 10° SW 05:12:53 49° WNW 05:18:05 10° NNE
STARLINK 1053 3.2 05:12:54 47° NW 05:13:40 67° NNE 05:17:06 10° ESE
STARLINK 1061 3.2 05:15:20 45° NW 05:16:13 69° NNE 05:19:38 10° ESE
Okean O Rocket 1.7 05:11:55 10° NNE 05:16:19 80° ESE 05:20:43 10° S
Cosmos 1932 4.4 05:10:03 10° SW 05:16:22 76° NW 05:22:53 10° NE
Meteor 1-20 Rocket 4.2 05:11:05 10° SSW 05:16:56 82° W 05:22:49 10° N
Starlink Launch 2 leader 2.3 05:18:06 70° SSE 05:18:06 70° SSE 05:20:22 10° SE
Cosmos 2056 Rocket 3.7 05:13:12 10° SW 05:18:05 45° WNW 05:23:01 10° N
STARLINK 1067 3.2 05:18:05 42° NW 05:19:05 72° NNE 05:22:32 10° ESE
USA 116 4.1 05:16:47 10° S 05:21:02 61° W 05:25:52 10° NNW
Starlink Launch 2 trailer 2.2 05:21:39 69° SSW 05:21:39 69° SSW 05:24:03 10° SE
STARLINK 1058 3.1 05:20:46 40° NW 05:21:52 75° NNE 05:25:19 10° ESE
Cosmos 676 Rocket 4.2 05:18:53 23° NW 05:21:54 48° WSW 05:26:57 10° S
Cosmos 2242 Rocket 4.4 05:21:38 30° WNW 05:22:05 30° W 05:26:01 10° SSW
Meteor 1-18 Rocket 4.1 05:18:24 10° NNW 05:23:58 80° W 05:29:32 10° S
STARLINK 1027 2.6 05:23:41 50° NW 05:24:20 85° NNE 05:27:16 10° ESE
STARLINK 1028 2.6 05:23:55 50° NW 05:24:34 85° NNE 05:27:30 10° ESE
STARLINK 1043 3.1 05:23:30 37° NW 05:24:43 79° NNE 05:28:10 10° ESE
Cosmos 1340 3.2 05:21:07 10° S 05:24:48 61° E 05:28:33 10° NNE
STARLINK 1021 2.6 05:24:08 50° NW 05:24:48 86° NE 05:27:43 10° ESE
Cosmos 1602 3.7 05:21:04 10° S 05:24:52 86° E 05:28:44 10° N
STARLINK 1034 2.6 05:24:18 48° NW 05:25:01 86° NE 05:27:57 10° ESE
STARLINK 1019 2.6 05:24:18 48° NW 05:25:01 86° NE 05:27:59 10° ESE
STARLINK 1012 2.6 05:24:33 49° NW 05:25:14 86° NNE 05:28:09 10° ESE
Cosmos 1703 Rocket 3.8 05:22:12 18° NNW 05:25:15 46° W 05:29:29 10° SSW
STARLINK 1010 2.6 05:24:45 48° WNW 05:25:27 87° NNE 05:28:23 10° ESE
STARLINK 1026 2.6 05:25:01 48° WNW 05:25:43 87° NNE 05:28:39 10° ESE
STARLINK 1013 2.6 05:25:14 48° WNW 05:25:56 88° NNE 05:28:52 10° ESE
CZ-4B DEB 4.2 05:20:39 10° N 05:26:07 64° WNW 05:31:34 10° SSW
STARLINK 1009 2.6 05:25:26 47° WNW 05:26:09 88° NE 05:29:05 10° ESE
STARLINK 1015 2.6 05:25:38 47° WNW 05:26:23 88° NE 05:29:18 10° ESE
STARLINK 1052 2.6 05:25:45 46° WNW 05:26:30 88° NNE 05:29:26 10° ESE
STARLINK 1016 2.6 05:25:51 47° WNW 05:26:35 89° NE 05:29:31 10° ESE
STARLINK 1008 2.6 05:26:05 46° WNW 05:26:49 89° NE 05:29:45 10° ESE
STARLINK 1014 2.6 05:26:18 46° WNW 05:27:03 89° N 05:29:58 10° ESE
STARLINK 1025 2.6 05:26:31 46° WNW 05:27:16 89° NNW 05:30:12 10° ESE
STARLINK 1017 2.6 05:26:36 46° WNW 05:27:22 90° NNE 05:30:17 10° ESE
STARLINK 1065 3.1 05:26:10 35° NW 05:27:30 82° NNE 05:30:57 10° ESE
Cosmos 2026 Rocket 3.9 05:21:31 10° NNW 05:27:39 71° W 05:33:49 10° S
STARLINK 1023 2.6 05:26:57 45° WNW 05:27:43 90° SW 05:30:38 10° ESE
STARLINK 1007 2.6 05:27:09 45° WNW 05:27:56 89° SW 05:30:52 10° ESE
STARLINK 1048 2.6 05:27:23 44° WNW 05:28:11 89° S 05:31:06 10° ESE
STARLINK 1049 2.6 05:27:35 44° WNW 05:28:24 89° SSW 05:31:19 10° ESE
STARLINK 1051 2.6 05:27:48 44° WNW 05:28:37 88° SSW 05:31:33 10° ESE
STARLINK 1037 2.6 05:28:01 43° WNW 05:28:51 88° SW 05:31:47 10° ESE
STARLINK 1059 2.6 05:28:14 43° WNW 05:29:04 88° SSW 05:32:00 10° ESE
STARLINK 1040 2.6 05:28:28 43° WNW 05:29:17 83° SW 05:32:14 10° SE
STARLINK 1057 2.6 05:28:27 43° WNW 05:29:17 87° SW 05:32:14 10° ESE
STARLINK 1068 2.6 05:28:53 42° WNW 05:29:45 87° SSW 05:32:40 10° ESE
STARLINK 1029 2.6 05:29:06 42° WNW 05:29:58 86° SSW 05:32:53 10° ESE
STARLINK 1060 2.6 05:29:20 42° WNW 05:30:13 86° SSW 05:33:08 10° ESE
STARLINK 1030 2.6 05:29:29 41° WNW 05:30:24 86° SSW 05:33:22 10° ESE
STARLINK 1063 3.1 05:29:02 33° WNW 05:30:29 86° NE 05:33:55 10° ESE
STARLINK 1020 2.6 05:29:46 41° WNW 05:30:39 85° SSW 05:33:35 10° ESE
Cosmos 1484 Rocket 3.6 05:27:17 10° N 05:30:43 28° WNW 05:34:06 10° SW
STARLINK 1033 2.6 05:30:24 40° WNW 05:31:19 84° SSW 05:34:14 10° ESE
STARLINK 1031 2.6 05:30:37 40° WNW 05:31:32 84° SSW 05:34:28 10° ESE
STARLINK 1024 2.6 05:30:47 39° WNW 05:31:46 83° SSW 05:34:43 10° ESE
STARLINK 1035 2.6 05:31:04 39° WNW 05:32:00 83° SW 05:34:56 10° ESE
STARLINK 1032 2.6 05:31:16 39° WNW 05:32:13 83° SSW 05:35:08 10° SE
STARLINK 1011 2.6 05:31:27 38° WNW 05:32:26 82° SW 05:35:24 10° SE
STARLINK 1036 2.6 05:31:42 38° WNW 05:32:40 82° SSW 05:35:35 10° SE
Cosmos 1954 Rocket 4.4 05:29:25 19° NW 05:32:46 42° WSW 05:37:43 10° S
STARLINK 1047 2.6 05:32:08 38° WNW 05:33:07 81° SSW 05:36:03 10° SE
STARLINK 1064 3.0 05:31:39 30° WNW 05:33:12 89° NNE 05:36:40 10° ESE
Cosmos 1733 Rocket 4.5 05:31:59 10° SSE 05:36:01 40° E 05:40:05 10° NNE
STARLINK 1041 3.0 05:34:24 28° WNW 05:36:03 87° SW 05:39:31 10° ESE
Cosmos 2263 Rocket 2.1 05:31:43 10° SSW 05:37:18 76° WNW 05:42:54 10° NNE
Cosmos 2279 Rocket 4.0 05:32:17 10° S 05:38:28 85° E 05:44:43 10° N
Cosmos 1420 Rocket 4.0 05:33:46 10° SW 05:38:55 61° WNW 05:44:04 10° NNE
STARLINK 1038 3.1 05:37:10 27° WNW 05:38:57 84° SSW 05:42:23 10° SE
STARLINK 1046 3.1 05:39:54 25° WNW 05:41:48 80° SSW 05:45:15 10° SE
Cosmos 1869 Rocket 3.6 05:39:09 10° SSW 05:43:22 53° WNW 05:47:38 10° N
Cosmos 1634 Rocket 4.0 05:37:58 10° SSW 05:44:02 56° WNW 05:50:09 10° N
SL-24 R/B 4.1 05:39:55 10° S 05:44:26 67° WSW 05:48:39 10° NNW
STARLINK 1039 3.1 05:42:40 23° WNW 05:44:40 76° SSW 05:48:07 10° SE
STARLINK 1045 3.1 05:43:36 23° WNW 05:45:39 75° SSW 05:49:06 10° SE
SJ-7 4.3 05:42:36 10° N 05:46:39 69° WNW 05:50:36 10° SSW
Cosmos 2227 4.4 05:41:33 10° SW 05:47:08 51° WNW 05:52:47 10° NNE
Cosmos 1655 Rocket 4.1 05:41:22 10° N 05:47:38 83° E 05:53:51 10° S
Cosmos 1741 Rocket 3.9 05:43:46 10° NNW 05:48:59 74° WSW 05:54:11 10° SSE
Okean 3 3.4 05:45:55 10° N 05:50:07 90° W 05:54:19 10° S
Radarsat Rocket 4.2 05:44:47 10° NNE 05:50:54 90° E 05:57:43 10° SSW
FALCON 9 DEB 3.4 05:50:58 22° WSW 05:51:50 29° SW 05:53:55 10° SSE
Cosmos 2297 Rocket 4.0 05:51:59 12° NW 05:52:49 12° NW 05:55:02 10° N
Cosmos 2227 Rocket 3.9 05:55:46 12° NW 05:56:51 12° NW 05:59:08 10° N
CZ-4B R/B 3.4 05:53:34 10° N 05:58:58 53° WNW 06:04:24 10° SW
Envisat 4.3 05:55:22 10° NNE 06:00:14 44° E 06:05:04 10° S
STARLINK 1044 3.3 05:58:28 17° WNW 06:00:22 41° SW 06:03:06 10° SE
Meteor 1-14 Rocket 4.5 05:55:57 10° SSW 06:01:44 53° WNW 06:07:36 10° N
FENGYUN 3A 4.1 05:57:00 10° N 06:01:54 37° WNW 06:06:47 10° SW
ATLAS CENTAUR R/B 3.5 05:58:48 10° NNW 06:01:55 19° NNE 06:04:53 10° E
Cosmos 1674 Rocket 4.0 05:59:25 10° N 06:03:46 65° E 06:08:03 10° SSE
Cosmos 1452 Rocket 3.7 05:59:42 10° SW 06:04:48 48° WNW 06:09:56 10° NNE
Cosmos 1346 Rocket 2.9 06:01:04 10° SSW 06:04:49 49° WNW 06:08:36 10° N
NOAA 6 4.4 06:01:55 10° N 06:06:42 41° WNW 06:11:28 10° SW
Cosmos 1850 Rocket 4.4 06:05:15 10° NNW 06:10:22 47° WSW 06:15:28 10° S
SL-23 DEB 3.5 06:07:16 10° WSW 06:10:22 75° SSE 06:13:58 10° ENE
Cosmos 1844 Rocket 3.9 06:06:09 10° S 06:11:28 47° ESE 06:16:48 10° NE
Timation 1 Rocket 4.5 06:09:23 10° SW 06:15:12 53° NW 06:21:03 10° NNE
Cosmos 1943 4.1 06:12:00 10° NW 06:16:46 29° WSW 06:21:31 10° SSW
FALCON 9 DEB 4.3 06:15:30 10° W 06:17:07 16° SW 06:18:45 10° S
CZ-4C R/B 4.4 06:12:25 10° WNW 06:17:14 18° WSW 06:22:21 10° SSW
USA 234 3.9 06:11:31 10° NE 06:17:26 38° N 06:23:22 10° WNW
H-2A R/B 2.7 06:14:33 10° N 06:18:12 56° WNW 06:21:52 10° SSW
YAOGAN 6 3.7 06:16:37 10° NNE 06:20:14 51° E 06:23:50 10° S
CZ-4 R/B 3.2 06:17:20 10° NNE 06:20:55 35° E 06:24:32 10° SSE
Cosmos 1378 Rocket 3.8 06:20:11 10° N 06:24:36 78° E 06:29:02 10° SSE
Cosmos 2082 Rocket 4.4 06:22:47 10° N 06:26:19 17° NE 06:29:49 10° ENE
ADEOS Rocket 3.4 06:19:54 10° S 06:26:58 63° WSW 06:33:20 10° NNW
CZ-2C R/B 3.9 06:23:23 10° S 06:28:03 66° WSW 06:32:49 10° NNW
Cosmos 405 3.0 06:25:11 10° NNW 06:28:43 64° W 06:32:12 10° S
